Address 0x5021fbfeb0b12efee26cb5c0adcdfd98565d3e81 1

My Name Tag:
Not Available

Txn Hash Method
Block
From
To
Value [Txn Fee]
0x10ba59e9ef8706a4a60c4e659e55d849d74b17687df86595f43ee32d092bd1320x893d242d92029282021-05-27 8:06:34115 days 21 hrs ago0x5021fbfeb0b12efee26cb5c0adcdfd98565d3e81OUT 0xd03c8f89de052256ab1d840cbde7e1e43b59a3450 BNB0.00811672
0x52d4e2ab334ad2f78c20940c70f3b57cfe8bc389e5b844fc618b560a49de971dApprove92029262021-05-27 8:06:28115 days 21 hrs ago0x5021fbfeb0b12efee26cb5c0adcdfd98565d3e81OUT 0x50ba517d64caa5e4fc30b8a010a92fdeed468e9b0 BNB0.00029203
0x3aa284e013067ad36bee2f767e561b231392bb01b486f52f8b307c06f99f773b0x893d242d91994802021-05-27 5:14:10116 days 39 mins ago0x5021fbfeb0b12efee26cb5c0adcdfd98565d3e81OUT 0xd03c8f89de052256ab1d840cbde7e1e43b59a3450 BNB0.00780316
0x1a75ac178a9b9699cbf08ce3332bc0a97a5c8032851c93e410119435b7acd98fApprove91994762021-05-27 5:13:58116 days 40 mins ago0x5021fbfeb0b12efee26cb5c0adcdfd98565d3e81OUT 0x50ba517d64caa5e4fc30b8a010a92fdeed468e9b0 BNB0.00029203
0x24947ca6a29749975b349132deb3efedd19f1bd0e56ff32a2cfa8adb7b70278a0x893d242d91980512021-05-27 4:02:43116 days 1 hr ago0x5021fbfeb0b12efee26cb5c0adcdfd98565d3e81OUT 0xd03c8f89de052256ab1d840cbde7e1e43b59a3450 BNB0.0081152
0x0914b5d6156b274be8d107f8bd62a7cf47157fe60019e560b3cbe0c428472266Approve91980482021-05-27 4:02:34116 days 1 hr ago0x5021fbfeb0b12efee26cb5c0adcdfd98565d3e81OUT 0x50ba517d64caa5e4fc30b8a010a92fdeed468e9b0 BNB0.00029203
0xad97cb8b3a993c939b114f69940815910ded6b1f09a6f133453b1f606551380a0x893d242d91940682021-05-27 0:43:34116 days 5 hrs ago0x5021fbfeb0b12efee26cb5c0adcdfd98565d3e81OUT 0xd03c8f89de052256ab1d840cbde7e1e43b59a3450 BNB0.00775928
0x1887dd9419ea27faf417ab7a4235ab9a0bdd3829c45538ef248285a8d296a1e5Approve91940662021-05-27 0:43:28116 days 5 hrs ago0x5021fbfeb0b12efee26cb5c0adcdfd98565d3e81OUT 0x50ba517d64caa5e4fc30b8a010a92fdeed468e9b0 BNB0.00029203
0xd4745eb5b9c5394f5f6d4c59c0ae863a74d1fe43d3916ea261b77c602d425c670x893d242d91937582021-05-27 0:28:04116 days 5 hrs ago0x5021fbfeb0b12efee26cb5c0adcdfd98565d3e81OUT 0xd03c8f89de052256ab1d840cbde7e1e43b59a3450 BNB0.00797729
0x4ba3d652bb658dc0e014985bed74fe150480b49c3fe625012be35a2b07e8cab6Approve91937562021-05-27 0:27:58116 days 5 hrs ago0x5021fbfeb0b12efee26cb5c0adcdfd98565d3e81OUT 0x50ba517d64caa5e4fc30b8a010a92fdeed468e9b0 BNB0.00029203
0xfa513034c5569a301c42844db3ca5ab89c0dfaefad8b70c5ba9ff66126d7ae3f0x893d242d91923152021-05-26 23:15:55116 days 6 hrs ago0x5021fbfeb0b12efee26cb5c0adcdfd98565d3e81OUT 0xd03c8f89de052256ab1d840cbde7e1e43b59a3450 BNB0.00785433
0xd9b9003355fb25be3c53e24692a88d46a8f56791f1fbc1fd86144bacbf50f47cApprove91923122021-05-26 23:15:46116 days 6 hrs ago0x5021fbfeb0b12efee26cb5c0adcdfd98565d3e81OUT 0x50ba517d64caa5e4fc30b8a010a92fdeed468e9b0 BNB0.00029203
0x0dddff6c29c41d874a2884465bbf032096fbfd668362c9aaf9cb57c24aeddc490x893d242d91885572021-05-26 20:08:01116 days 9 hrs ago0x5021fbfeb0b12efee26cb5c0adcdfd98565d3e81OUT 0xd03c8f89de052256ab1d840cbde7e1e43b59a3450 BNB0.00775928
0x53e4d37ab228b93d7b47c05ef879edfcc242600795fbafa4e11c8aae016aaa4aApprove91885542021-05-26 20:07:52116 days 9 hrs ago0x5021fbfeb0b12efee26cb5c0adcdfd98565d3e81OUT 0x50ba517d64caa5e4fc30b8a010a92fdeed468e9b0 BNB0.00029203
0x4f5f1348cb51328077df3d1c862f9a27e7545c369da450b33d820356a1ddc2870x893d242d91830822021-05-26 15:34:16116 days 14 hrs ago0x5021fbfeb0b12efee26cb5c0adcdfd98565d3e81OUT 0xd03c8f89de052256ab1d840cbde7e1e43b59a3450 BNB0.00811608
0x5e6032b63ea68b79533247dbbad1dac9eb79ad7f231f6da75d1e764099e1e534Approve91830792021-05-26 15:34:07116 days 14 hrs ago0x5021fbfeb0b12efee26cb5c0adcdfd98565d3e81OUT 0x50ba517d64caa5e4fc30b8a010a92fdeed468e9b0 BNB0.00029203
0xe91c9d082e9fe7b8a411aab75944d07d458259b6b8219db265aa92dcdba422960x893d242d91805412021-05-26 13:27:13116 days 16 hrs ago0x5021fbfeb0b12efee26cb5c0adcdfd98565d3e81OUT 0xd03c8f89de052256ab1d840cbde7e1e43b59a3450 BNB0.0082222
0x16a2f17e945704145a25915a0edb736e837b2c52e6b7a437f1e9b66ad752e1f4Approve91805382021-05-26 13:27:04116 days 16 hrs ago0x5021fbfeb0b12efee26cb5c0adcdfd98565d3e81OUT 0x50ba517d64caa5e4fc30b8a010a92fdeed468e9b0 BNB0.00029203
0xab1798a51f7bede8667dcfb7fc56f89c8fe7be704d2ce0c5a00f13a458eef5740x893d242d91801712021-05-26 13:08:43116 days 16 hrs ago0x5021fbfeb0b12efee26cb5c0adcdfd98565d3e81OUT 0xd03c8f89de052256ab1d840cbde7e1e43b59a3450 BNB0.007586
0xcfa9dc992d291252e28c0b881896ce967784e0d4689e29257349edc59c9d128bApprove91801692021-05-26 13:08:37116 days 16 hrs ago0x5021fbfeb0b12efee26cb5c0adcdfd98565d3e81OUT 0x50ba517d64caa5e4fc30b8a010a92fdeed468e9b0 BNB0.00029203
0x47917a1a84a37c70313194152c22c90f5be8ab2202083b569928df935c9cf1d20x893d242d91770622021-05-26 10:33:16116 days 19 hrs ago0x5021fbfeb0b12efee26cb5c0adcdfd98565d3e81OUT 0xd03c8f89de052256ab1d840cbde7e1e43b59a3450 BNB0.00775955
0x3a0ac6d1bad53a6d9bb9a6cfe43411fa7de1878fd28805180725ce589e66c83eApprove91770582021-05-26 10:33:04116 days 19 hrs ago0x5021fbfeb0b12efee26cb5c0adcdfd98565d3e81OUT 0x50ba517d64caa5e4fc30b8a010a92fdeed468e9b0 BNB0.00029203
0x112059d88d78cc6f26cc23a290c52c1cb5b1143a4db1fa10bb15d0acb988f5990x893d242d91763292021-05-26 9:56:37116 days 19 hrs ago0x5021fbfeb0b12efee26cb5c0adcdfd98565d3e81OUT 0xd03c8f89de052256ab1d840cbde7e1e43b59a3450 BNB0.0080722
0xcc78018eb3c1ee1f5c57169ba702e12ad83b30f13720781c6b73c9f5a34185f9Approve91763262021-05-26 9:56:28116 days 19 hrs ago0x5021fbfeb0b12efee26cb5c0adcdfd98565d3e81OUT 0x50ba517d64caa5e4fc30b8a010a92fdeed468e9b0 BNB0.00029203
0xd5340f362e5dc0488b9e5ff7abc785a36370183ee0fd94929fee2112d9cf93110x893d242d91759542021-05-26 9:37:52116 days 20 hrs ago0x5021fbfeb0b12efee26cb5c0adcdfd98565d3e81OUT 0xd03c8f89de052256ab1d840cbde7e1e43b59a3450 BNB0.00754168
[ Download CSV Export 
Parent Txn Hash Block From To Value
Loading

Contract Name:
0 BNB

Compiler Version
0

Optimization Enabled:
0 BNB

Other Settings:
-NA-
Block Transaction Gas Used Reward
Age Block Fee Address BC Fee Address Voting Power Jailed Incoming
Block Uncle Number Difficulty Gas Used Reward
Loading